Willimantic, CT

8:05 PM EST on December 14, 2019 (GMT -0500)
Windham

Weather History for KIJD - October, 2019

Change the Weather History Date:

Monday, October 14, 2019

  Actual Average Record
Temperature  
Mean Temperature 57 °F -  
Max Temperature 70 °F 63 °F 82 °F (1954)
Min Temperature 45 °F 39 °F 18 °F (1953)
Degree Days  
Heating Degree Days 8    
Growing Degree Days 7 (Base 50)    
Moisture  
Dew Point 49 °F    
Average Humidity 81    
Maximum Humidity 93    
Minimum Humidity 53    
Precipitation  
Precipitation 0.00 in - - ()
Sea Level Pressure  
Sea Level Pressure 29.99 in    
Wind  
Wind Speed 2 mph ()    
Max Wind Speed 7 mph    
Max Gust Speed -    
Visibility 10.0 miles    
Events      
Averages and records for this station are not official NWS values.
T = Trace of Precipitation, MM = Missing Value Source: Averaged Metar Reports

Daily Weather History Graph

Daily Weather History Graph

Search for Another Location

Airport or City:

Astronomy

Oct. 14, 2019 Rise Set
Actual Time 6:59 AM EDT 6:09 PM EDT
Civil Twilight 6:31 AM EDT 6:37 PM EDT
Nautical Twilight 5:59 AM EDT 7:09 PM EDT
Astronomical Twilight 5:27 AM EDT 7:41 PM EDT
Moon 6:57 PM EDT (10/14) 7:28 AM EDT (10/14)
Length of Visible Light 12h 05m
Length of Day
11h 09m
Waxing Gibbous, 99% of the Moon is Illuminated
Oct 14
Waxing Gibbous
Oct 21
Last Quarter
Oct 27
New
Nov 4
First Quarter
Nov 12
Full

Hourly Weather History & Observations

Time (EDT) Temp. Windchill Dew Point Humidity Pressure Visibility Wind Dir Wind Speed Gust Speed Precip Events Conditions
12:52 AM 45.0 °F - 43.0 °F 93% 30.05 in 10.0 mi Calm Calm - N/A   Overcast
1:52 AM 45.0 °F - 43.0 °F 93% 30.05 in 10.0 mi Calm Calm - N/A   Overcast
2:52 AM 45.0 °F - 43.0 °F 93% 30.03 in 10.0 mi Calm Calm - N/A   Overcast
3:52 AM 45.0 °F 42.6 °F 43.0 °F 93% 30.01 in 10.0 mi North 4.6 mph - N/A   Mostly Cloudy
4:52 AM 46.0 °F - 43.0 °F 89% 30.01 in 10.0 mi Calm Calm - N/A   Overcast
5:52 AM 46.0 °F 44.8 °F 43.0 °F 89% 30.00 in 10.0 mi North 3.5 mph - N/A   Overcast
6:52 AM 45.0 °F - 43.0 °F 93% 30.00 in 10.0 mi Calm Calm - N/A   Mostly Cloudy
7:52 AM 46.0 °F 44.8 °F 44.1 °F 93% 30.02 in 10.0 mi Variable 3.5 mph - N/A   Mostly Cloudy
8:18 AM 46.9 °F - 45.0 °F 93% 30.03 in 10.0 mi NE 3.5 mph - N/A   Overcast
8:52 AM 48.9 °F - 46.0 °F 90% 30.02 in 10.0 mi Calm Calm - N/A   Overcast
9:52 AM 53.1 °F - 48.0 °F 83% 30.02 in 10.0 mi Calm Calm - N/A   Overcast
10:49 AM 57.2 °F - 51.8 °F 82% 30.01 in 10.0 mi Calm Calm - N/A   Overcast
10:52 AM 57.9 °F - 51.1 °F 78% 30.01 in 10.0 mi Calm Calm - N/A   Overcast
11:33 AM 61.0 °F - 54.0 °F 78% 29.99 in 10.0 mi Calm Calm - N/A   Mostly Cloudy
11:52 AM 61.0 °F - 53.1 °F 75% 29.98 in 10.0 mi West 3.5 mph - N/A   Overcast
12:52 PM 64.0 °F - 54.0 °F 70% 29.96 in 10.0 mi SW 3.5 mph - N/A   Overcast
1:35 PM 64.9 °F - 54.0 °F 68% 29.94 in 10.0 mi Variable 3.5 mph - N/A   Scattered Clouds
1:52 PM 66.0 °F - 54.0 °F 65% 29.93 in 10.0 mi Calm Calm - N/A   Scattered Clouds
2:52 PM 68.0 °F - 53.1 °F 59% 29.90 in 10.0 mi South 6.9 mph - N/A   Clear
3:52 PM 69.1 °F - 51.1 °F 53% 29.89 in 10.0 mi Variable 3.5 mph - N/A   Clear
4:52 PM 68.0 °F - 53.1 °F 59% 29.90 in 10.0 mi SSW 5.8 mph - N/A   Clear
5:52 PM 64.9 °F - 53.1 °F 65% 29.92 in 10.0 mi South 6.9 mph - N/A   Clear
6:52 PM 61.0 °F - 53.1 °F 75% 29.93 in 10.0 mi SSW 6.9 mph - N/A   Clear
7:52 PM 59.0 °F - 55.0 °F 87% 29.96 in 10.0 mi SSE 5.8 mph - N/A   Clear
8:52 PM 55.9 °F - 54.0 °F 93% 29.98 in 10.0 mi Calm Calm - N/A   Clear
9:52 PM 55.0 °F - 53.1 °F 93% 30.00 in 10.0 mi Calm Calm - N/A   Clear
10:52 PM 55.0 °F - 51.1 °F 86% 30.03 in 10.0 mi WNW 4.6 mph - N/A   Clear
11:52 PM 50.0 °F - 48.0 °F 93% 30.03 in 10.0 mi Calm Calm - N/A   Clear